User: anonymous   Login
Location: Chervonnoye
(48.6000°N, 34.4000°E)
Time: 03:55:50
(UTC+00:00)
Language:

STARS - Orbit

View from above orbital plane
View from above orbital plane
View from above satellite
View from above satellite

Ground track
Ground track

The orbit data is extracted from the following two-line orbital elements,

1 33498U 09002G   21339.64915302  .00000475  00000-0  70879-4 0  9997
2 33498  98.1898 223.1601 0011317 149.6694 210.5173 14.79505966693198
Epoch (UTC): 05 December 2021 15:34:46
Eccentricity: 0.0011317
inclination: 98.1898°
perigee height: 623 km
apogee height: 639 km
right ascension of ascending node: 223.1601°
argument of perigee: 149.6694°
revolutions per day: 14.79505966
mean anomaly at epoch: 210.5173°
orbit number at epoch: 69319

The dashed part of the orbit path shows where the satellite is in the earth's shadow,  

DLR